FlightSource - Aviation Photo Database

World Wide Airport Lookup


Search by ICAO
Or
Search by City

FlightSource.ca - Aviation Photo Database - Rexburg Madison County Airport Information
Airport Identification
Name: Rexburg Madison County Airport
ICAO: KRXE
IATA:
Airport Location
City: Rexburg
Region: ID
Country: United States
Continent: North America
Latitude: 43.8339
Longitude: -111.805
Airport Information
Type: Small Airport
Elevation: 4858 Feet ASL
Flight Status: KRXE
More Info: KRXE
Airport Weather    
Metar: KRXE 200353Z AUTO 07008KT 10SM CLR M13/M19 A2974 RMK AO2 SLP137 T11331194
TAF:


Advertisement